Location: Ar Ranvel
(48.3000°N, 4.8833°W)
Time: 09:26:40
(UTC+00:00)

NOSS 3-2 (C) - Visible Passes

Search period start: 28 October 2021 00:00
Search period end: 07 November 2021 00:00
Orbit: 777 x 1436 km, 63.4° (Epoch: 24 October)

Date Brightness Start Highest point End Pass type
(mag) Time Alt. Az. Time Alt. Az. Time Alt. Az.
28 Oct 5.0 18:28:27 10° NW 18:34:16 28° NNE 18:38:27 18° ENE visible
28 Oct 4.2 20:19:27 10° NW 20:25:53 58° NNE 20:25:53 58° NNE visible
28 Oct 5.7 22:10:31 10° NW 22:13:20 24° WNW 22:13:20 24° WNW visible
29 Oct 5.1 17:43:27 10° NW 17:48:53 25° NNE 17:54:59 10° ENE visible
29 Oct 4.3 19:34:43 10° NW 19:41:38 47° NE 19:42:39 45° ENE visible
29 Oct 5.0 21:25:35 10° NW 21:30:06 40° WNW 21:30:06 40° WNW visible
30 Oct 4.6 18:49:57 10° NW 18:56:29 37° NNE 18:59:29 28° ENE visible
30 Oct 4.2 20:40:46 10° NW 20:46:56 66° NW 20:46:56 66° NW visible
30 Oct 6.2 22:32:37 10° WNW 22:34:22 16° WNW 22:34:22 16° WNW visible
31 Oct 4.8 18:05:08 10° NW 18:11:13 31° NNE 18:16:21 16° ENE visible
31 Oct 3.9 19:56:01 10° NW 20:03:23 72° NE 20:03:49 70° ENE visible
31 Oct 5.5 21:47:18 10° NW 21:51:16 28° WNW 21:51:16 28° WNW visible
01 Nov 5.0 17:20:13 10° NW 17:25:52 26° NNE 17:32:14 10° ENE visible
01 Nov 4.1 19:11:18 10° NW 19:18:24 55° NE 19:20:46 42° E visible
01 Nov 4.8 21:02:16 10° NW 21:08:14 47° W 21:08:14 47° W visible
02 Nov 4.4 18:26:34 10° NW 18:33:19 42° NE 18:37:49 24° E visible
02 Nov 4.1 20:17:24 10° NW 20:24:51 72° SW 20:25:17 71° SSW visible
02 Nov 6.1 22:09:47 10° WNW 22:12:45 17° W 22:12:45 17° W visible
03 Nov 4.7 17:41:47 10° NW 17:48:07 34° NNE 17:54:58 11° E visible
03 Nov 3.9 19:32:36 10° NW 19:40:03 85° NE 19:42:27 51° SE visible
03 Nov 5.5 21:24:11 10° WNW 21:29:56 29° WSW 21:29:56 29° WSW visible
04 Nov 4.0 18:47:52 10° NW 18:55:08 64° NE 18:59:46 28° ESE visible
04 Nov 4.9 20:38:59 10° NW 20:46:04 42° WSW 20:47:15 40° SW visible
05 Nov 4.3 18:03:08 10° NW 18:10:07 49° NE 18:17:15 13° ESE visible
05 Nov 4.4 19:54:01 10° NW 20:01:25 59° WSW 20:04:45 37° S visible
05 Nov 6.2 21:47:21 10° WNW 21:51:18 15° WSW 21:52:16 14° WSW visible
06 Nov 4.5 17:18:23 10° NW 17:24:59 39° NNE 17:32:32 10° E visible
06 Nov 4.1 19:09:11 10° NW 19:16:41 81° SW 19:22:31 23° SSE visible
06 Nov 5.9 21:01:13 10° WNW 21:06:59 23° WSW 21:10:03 19° SW visible
